DateTimeUTC,F1_A11,F1_S11,BsB_S11,BsG_S11,BsR_S11,BbsB_S11,BbsG_S11,BbsR_S11,BaB_A11,BaG_A11,BaR_A11,Tu_S11,T_S11,Uu_S11,U_S11,P_S11,T1_A11
2021-05-19T12:00:00Z,00000200,20000000,,,,,,,-000.45,-000.49,-000.57,17.8,24.5,02.0,01.3,0678.3,30.9
2021-05-19T12:01:00Z,00000200,20000000,,,,,,,-000.64,-000.97,-000.92,17.8,24.5,01.9,01.3,0678.3,30.9
2021-05-19T12:02:00Z,00000200,20000000,,,,,,,-000.46,-000.56,-000.15,17.8,24.5,01.7,01.1,0678.4,30.9
2021-05-19T12:03:00Z,00000200,60000000,,,,,,,0000.67,0000.73,0000.01,17.8,24.5,01.7,01.1,0678.4,31.0
2021-05-19T12:04:00Z,00000200,41000000,0001.72,0001.54,0001.13,0000.50,0000.16,0000.16,0000.89,0000.59,0000.63,18.0,24.4,01.1,00.7,0679.3,31.0
2021-05-19T12:05:00Z,00000200,01000000,0003.06,0001.83,0001.23,0000.62,0000.34,0000.34,0001.16,0001.57,0001.21,18.0,24.3,01.0,00.7,0679.4,30.9
2021-05-19T12:06:00Z,00000200,01000000,0003.10,0002.36,0001.58,0000.58,0000.45,0000.16,0001.45,0001.16,0001.33,18.0,24.3,01.3,00.9,0679.4,31.0
2021-05-19T12:07:00Z,00000200,01000000,0003.25,0002.08,0001.52,0000.18,0000.29,0000.26,0000.85,0000.82,0000.10,18.1,24.3,01.4,01.0,0679.4,31.0
2021-05-19T12:08:00Z,00000200,01000000,0002.93,0002.15,0001.31,-000.15,0000.33,0000.49,0001.38,0001.43,0001.46,18.1,24.3,01.4,01.0,0679.4,31.0
2021-05-19T12:09:00Z,00000200,01000000,0003.32,0002.81,0001.58,0000.78,0000.40,0000.12,0001.95,0001.88,0001.36,18.1,24.3,01.6,01.1,0679.4,30.9
2021-05-19T12:10:00Z,00000200,01000000,0004.84,0002.54,0001.57,0000.41,0000.26,0000.31,0001.32,0001.32,0001.08,18.1,24.3,01.8,01.2,0679.4,31.0
2021-05-19T12:11:00Z,00000200,00000000,0004.85,0003.36,0001.74,0000.53,0000.54,0000.19,0001.41,0001.45,0001.11,18.1,24.3,02.0,01.4,0679.4,31.0
2021-05-19T12:12:00Z,00000200,00000000,0005.12,0003.23,0001.39,0000.85,0000.50,0000.43,0001.62,0001.00,0000.65,18.1,24.4,02.1,01.5,0679.4,31.0
2021-05-19T12:13:00Z,00000200,00000000,0004.32,0002.86,0001.70,0000.52,0000.33,0000.47,0001.17,0001.34,0000.93,18.1,24.4,02.1,01.5,0679.4,31.0
2021-05-19T12:14:00Z,00000200,01000000,0004.26,0003.06,0001.57,0000.49,0000.40,0000.16,0001.52,0001.32,0001.28,18.1,24.4,02.2,01.5,0679.4,31.0
2021-05-19T12:15:00Z,00000200,00000000,0005.82,0003.05,0001.73,0000.90,0000.63,0000.29,0001.23,0001.35,0000.64,18.2,24.4,02.2,01.5,0679.4,31.0
2021-05-19T12:16:00Z,00000200,00000000,0005.29,0003.03,0001.63,0000.79,0000.44,0000.46,0001.27,0001.17,0001.00,18.2,24.4,02.1,01.5,0679.4,31.0
2021-05-19T12:17:00Z,00000200,00000000,0004.87,0003.24,0001.46,0000.67,0000.48,0000.36,0001.53,0001.15,0000.62,18.2,24.4,02.2,01.5,0679.4,31.0
2021-05-19T12:18:00Z,00000200,00000000,0005.16,0003.10,0001.51,0000.88,0000.24,0000.25,0001.04,0001.18,0000.81,18.2,24.4,02.1,01.4,0679.3,31.0
2021-05-19T12:19:00Z,00000200,00000000,0005.14,0002.61,0001.67,0001.29,0000.64,0000.48,0001.60,0001.09,0001.49,18.2,24.4,02.1,01.5,0679.3,31.0
2021-05-19T12:20:00Z,00000200,00000000,0004.94,0003.29,0001.85,0000.71,0000.40,0000.29,0001.07,0000.80,0000.45,18.2,24.4,02.1,01.4,0679.3,31.0
2021-05-19T12:21:00Z,00000200,00000000,0004.15,0003.17,0001.49,0000.50,0000.52,0000.13,0001.68,0001.24,0000.85,18.2,24.4,02.1,01.4,0679.3,31.0
2021-05-19T12:22:00Z,00000200,00000000,0005.27,0002.82,0001.79,0000.63,0000.49,0000.06,0000.86,0000.72,0000.34,18.2,24.4,02.0,01.4,0679.3,31.0
2021-05-19T12:23:00Z,00000200,00000000,0004.35,0002.80,0001.48,0000.82,0000.41,0000.35,0001.27,0001.17,0000.93,18.3,24.4,02.0,01.4,0679.3,31.0
2021-05-19T12:24:00Z,00000200,00000000,0004.92,0003.03,0001.25,0000.28,0000.54,0000.71,0000.97,0001.01,0000.81,18.3,24.4,02.1,01.4,0679.3,31.0
2021-05-19T12:25:00Z,00000200,01000000,0003.80,0002.74,0001.74,0000.90,0000.24,0000.67,0000.99,0001.13,0000.80,18.3,24.4,02.0,01.4,0679.3,31.0
2021-05-19T12:26:00Z,00000200,00000000,0004.04,0003.02,0001.53,0000.97,0000.31,0000.50,0001.37,0000.71,0000.49,18.3,24.4,02.0,01.4,0679.2,31.0
2021-05-19T12:27:00Z,00000200,00000000,0004.49,0002.76,0001.63,0000.90,0000.53,0000.36,0000.83,0001.13,0000.91,18.3,24.4,01.9,01.3,0679.2,31.0
2021-05-19T12:28:00Z,00000200,00000000,0004.62,0002.72,0001.82,0000.78,0000.76,0000.45,0001.17,0001.08,0000.41,18.3,24.5,01.9,01.3,0679.2,31.0
2021-05-19T12:29:00Z,00000200,00000000,0003.96,0003.30,0001.73,0000.99,0000.50,0000.52,0001.44,0001.00,0001.15,18.4,24.5,01.9,01.3,0679.2,31.0
2021-05-19T12:30:00Z,00000200,00000000,0004.80,0002.60,0001.41,0000.52,0000.63,0000.28,0000.71,0000.81,0000.39,18.4,24.5,01.8,01.3,0679.2,31.0
2021-05-19T12:31:00Z,00000200,01000000,0005.11,0002.76,0001.33,0000.67,0000.35,0000.34,0001.32,0001.20,0000.87,18.4,24.5,01.8,01.3,0679.2,31.0
2021-05-19T12:32:00Z,00000200,01000000,0004.43,0002.66,0001.43,0000.27,0000.66,0000.20,0000.90,0000.90,0000.61,18.4,24.5,01.9,01.3,0679.2,31.0
2021-05-19T12:33:00Z,00000200,01000000,0004.58,0002.78,0001.22,0001.00,0000.57,0000.38,0001.23,0001.06,0000.88,18.4,24.5,01.8,01.2,0679.2,31.0
2021-05-19T12:34:00Z,00000200,00000000,0003.81,0002.76,0001.56,0000.81,0000.26,0000.14,0001.02,0000.79,0000.66,18.5,24.5,01.8,01.2,0679.2,31.0
2021-05-19T12:35:00Z,00000200,01000000,0004.51,0002.71,0001.57,0000.63,0000.58,0000.33,0001.35,0001.44,0000.64,18.5,24.6,01.8,01.2,0679.2,31.0
2021-05-19T12:36:00Z,00000200,01000000,0004.90,0002.33,0001.31,0000.34,0000.51,0000.30,0001.20,0000.76,0000.75,18.5,24.6,01.7,01.2,0679.1,31.0
2021-05-19T12:37:00Z,00000200,01000000,0004.63,0002.84,0001.31,0000.54,0000.25,0000.46,0001.10,0001.00,0000.70,18.5,24.6,01.7,01.2,0679.1,31.0
2021-05-19T12:38:00Z,00000200,01000000,0004.77,0002.78,0001.52,0000.83,0000.50,0000.32,0000.98,0000.96,0000.86,18.5,24.6,01.7,01.2,0679.1,31.0
2021-05-19T12:39:00Z,00000200,01000000,0004.80,0003.06,0001.51,0000.54,0000.32,0000.37,0001.22,0001.00,0000.83,18.5,24.6,01.7,01.2,0679.1,31.0
2021-05-19T12:40:00Z,00000200,01000000,0004.90,0002.84,0001.48,0000.26,0000.90,0000.45,0001.19,0001.53,0000.63,18.5,24.6,01.7,01.2,0679.1,31.0
2021-05-19T12:41:00Z,00000200,01000000,0003.99,0003.15,0001.55,0001.21,0000.55,0000.58,0001.24,0000.64,0000.82,18.5,24.6,01.7,01.2,0679.1,31.0
2021-05-19T12:42:00Z,00000200,01000000,0004.41,0002.80,0001.55,0001.22,0000.43,0000.67,0001.20,0001.28,0000.52,18.5,24.6,01.6,01.1,0679.1,31.0
2021-05-19T12:43:00Z,00000200,01000000,0003.03,0002.69,0001.77,0000.21,0000.75,0000.40,0001.11,0000.64,0000.80,18.6,24.6,01.6,01.1,0679.1,31.0
2021-05-19T12:44:00Z,00000200,01000000,0003.49,0002.41,0001.48,0000.35,0000.23,0000.23,0000.99,0000.66,0001.04,18.5,24.6,01.5,01.1,0679.1,31.0
2021-05-19T12:45:00Z,00000200,01000000,0004.01,0002.35,0001.61,0000.60,0000.56,0000.35,0001.01,0001.27,0000.13,18.6,24.6,01.5,01.1,0679.0,31.0
2021-05-19T12:46:00Z,00000200,01000000,0004.50,0002.55,0001.43,0000.96,0000.30,0000.34,0000.79,0000.96,0001.01,18.5,24.6,01.6,01.1,0679.0,31.0
2021-05-19T12:47:00Z,00000200,01000000,0003.92,0002.39,0001.72,0000.65,0000.33,0000.54,0001.19,0000.87,0000.14,18.5,24.6,01.5,01.1,0679.1,31.0
2021-05-19T12:48:00Z,00000200,01000000,0003.48,0002.52,0001.29,0000.72,0000.57,0000.38,0001.19,0001.32,0001.15,18.6,24.6,01.5,01.0,0679.1,31.0
2021-05-19T12:49:00Z,00000200,01000000,0003.74,0002.60,0001.53,0000.92,0000.49,0000.32,0000.99,0000.93,0001.03,18.6,24.6,01.5,01.0,0679.1,31.0
2021-05-19T12:50:00Z,00000200,01000000,0003.59,0002.57,0001.62,0000.52,0000.68,0000.49,0001.21,0000.67,0000.46,18.6,24.6,01.5,01.0,0679.1,31.0
2021-05-19T12:51:00Z,00000200,01000000,0004.41,0002.51,0001.24,0000.13,0000.42,0000.06,0001.23,0001.20,0001.02,18.6,24.6,01.5,01.1,0679.1,31.0
2021-05-19T12:52:00Z,00000200,01000000,0004.48,0002.27,0001.61,0000.92,0000.39,0000.35,0001.11,0001.20,0000.55,18.6,24.6,01.5,01.0,0679.1,31.0
2021-05-19T12:53:00Z,00000200,01000000,0003.95,0002.56,0001.29,0000.67,0000.74,0000.34,0001.02,0000.46,0000.51,18.6,24.6,01.5,01.0,0679.1,31.0
2021-05-19T12:54:00Z,00000200,01000000,0003.63,0002.51,0001.28,0000.17,0000.48,0000.02,0000.79,0001.05,0000.74,18.6,24.6,01.5,01.0,0679.1,31.0
2021-05-19T12:55:00Z,00000200,01000000,0004.41,0002.12,0001.57,0000.29,0000.50,0000.49,0001.46,0001.24,0000.95,18.6,24.6,01.6,01.1,0679.1,31.0
2021-05-19T12:56:00Z,00000200,01000000,0004.01,0002.75,0000.98,0000.62,0000.46,0000.39,0001.06,0001.02,0000.75,18.6,24.6,01.4,01.0,0679.1,31.0
2021-05-19T12:57:00Z,00000200,41000000,,,,,,,0000.47,0000.40,0000.46,18.7,24.6,00.9,00.6,0679.2,30.9
2021-05-19T12:58:00Z,00000200,61000000,,,,,,,-000.32,-000.30,-000.37,18.5,24.7,01.4,01.0,0678.1,31.0
2021-05-19T12:59:00Z,00000200,20000000,,,,,,,-000.05,0000.01,0000.33,18.5,24.8,01.5,01.0,0678.1,31.0
